INS-1B (41954 NORAD) Tracking and Keplerian Element Data

This shows tracking and keplerian element data for the satellite.

Feedback or suggestion? Click here.




ElementValue
Catalog41954
NameINS-1B
Epoch Orbit12615
Epoch Day145.72578158
Epoch Year2019
RAAN211.0809
Inclination97.4011
Eccentricity0.0008035
Argument of Perigee221.5662
Mean Anonmoly138.4965
Mean Motion15.23885657
Decay Rate7.76E-06
L11 41954U 17008G 19145.72578158 .00000776 00000-0 35084-4 0 9996
L22 41954 97.4011 211.0809 0008035 221.5662 138.4965 15.23885657126159

Live tracking and technical data element details for INS-1B (NORAD 41954). INS-1B can be tracked NOW for your location showing map with azimuth and elevation plus other details from your city location.

Track the satellite on the map from your city or location and see movement details for azimuth, elevation, latitude, longitude, range, height, and movement on the map or in text.







IsCatalogInMostPopularTable: catalog: 41954, numindb: 185
Update: records affected: 1



GetName: 41954 INS-1B

Hit Count: updated at: Sun, 26 May 2019 19:49:05 GMT